Weather History for Prague, Czech Republic

Change the Weather History Date:

Sunday, March 3, 2013

  Actual Average Record
Temperature  
Mean Temperature 30 °F -  
Max Temperature 37 °F 47 °F 55 °F (1999)
Min Temperature 24 °F 31 °F 5 °F (2005)
Degree Days  
Heating Degree Days 34    
Moisture  
Dew Point 25 °F    
Average Humidity 78    
Maximum Humidity 86    
Minimum Humidity 65    
Precipitation  
Precipitation 0.00 in 0.04 in - ()
Sea Level Pressure  
Sea Level Pressure 30.11 in    
Wind  
Wind Speed 8 mph ()    
Max Wind Speed 13 mph    
Max Gust Speed -    
Visibility 7.2 miles    
Events      
Averages and records for this station are not official NWS values.
T = Trace of Precipitation, MM = Missing Value Source: Averaged Metar Reports

Daily Weather History Graph

Daily Weather History Graph

Search for Another Location

Airport:

Trip Planner

Search our weather history database for the weather conditions in past years. The results will help you decide how hot, cold, wet, or windy it might be!

Date:

Astronomy

Mar. 03, 2013 Rise Set
Actual Time 6:42 AM CET 5:48 PM CET
Civil Twilight 6:09 AM CET 6:20 PM CET
Nautical Twilight 5:32 AM CET 6:58 PM CET
Astronomical Twilight 4:54 AM CET 7:36 PM CET
Moon No Moon Rise 9:04 AM CET (3/3)
Length of Visible Light 12h 11m
Length of Day
11h 06m
Waning Gibbous, 66% of the Moon is Illuminated
Mar 3
Waning Gibbous
Mar 4
Last Quarter
Mar 11
New
Mar 19
First Quarter
Mar 27
Full

Hourly Weather History & Observations

Time (CET) Temp. Windchill Dew Point Humidity Pressure Visibility Wind Dir Wind Speed Gust Speed Precip Events Conditions
12:00 AM 30.2 °F 21.9 °F 23.0 °F 75% 30.09 in - SW 9.2 mph - N/A   Clear
12:30 AM 28.4 °F 22.2 °F 23.0 °F 80% 30.09 in - SW 5.8 mph - N/A   Clear
1:00 AM 26 °F - 21 °F 72% 30.18 in 19 mi SW 11.2 mph - -  
1:00 AM 26.6 °F 17.5 °F 21.2 °F 80% 30.09 in - SSW 9.2 mph - N/A   Clear
1:30 AM 26.6 °F 18.2 °F 21.2 °F 80% 30.09 in - SW 8.1 mph - N/A   Clear
2:00 AM 28.4 °F 21.2 °F 23.0 °F 80% 30.06 in - SW 6.9 mph - N/A   Clear
2:30 AM 24.8 °F 14.6 °F 21.2 °F 86% 30.06 in - SSW 10.4 mph - N/A   Clear
3:00 AM 24.8 °F 14.6 °F 21.2 °F 86% 30.06 in - SSW 10.4 mph - N/A   Clear
3:30 AM 24.8 °F 14.0 °F 21.2 °F 86% 30.06 in - SSW 11.5 mph - N/A   Clear
4:00 AM 26.6 °F 15.7 °F 21.2 °F 80% 30.06 in - WSW 12.7 mph - N/A   Clear
4:30 AM 26.6 °F 15.7 °F 21.2 °F 80% 30.06 in - WSW 12.7 mph - N/A   Clear
5:00 AM 26.6 °F 15.7 °F 21.2 °F 80% 30.06 in - WSW 12.7 mph - N/A   Clear
5:30 AM 24.8 °F 14.0 °F 21.2 °F 86% 30.06 in - WSW 11.5 mph - N/A   Clear
6:00 AM 24.8 °F 15.3 °F 21.2 °F 86% 30.06 in - SW 9.2 mph - N/A   Clear
6:30 AM 24.8 °F 15.3 °F 21.2 °F 86% 30.06 in - WSW 9.2 mph - N/A   Clear
7:00 AM 26 °F - 21 °F 76% 30.16 in 9 mi West 11.2 mph - -   Scattered Clouds
7:00 AM 26.6 °F 18.2 °F 23.0 °F 86% 30.06 in - WSW 8.1 mph - N/A   Clear
7:30 AM 28.4 °F 18.5 °F 23.0 °F 80% 30.06 in - SW 11.5 mph - N/A   Clear
8:00 AM 28.4 °F 18.5 °F 23.0 °F 80% 30.06 in - WSW 11.5 mph - N/A   Clear
8:30 AM 30.2 °F 20.8 °F 24.8 °F 80% 30.09 in 6.2 mi WSW 11.5 mph - N/A   Mostly Cloudy
9:00 AM 30.2 °F 20.2 °F 24.8 °F 80% 30.09 in 6.2 mi WSW 12.7 mph - N/A   Mostly Cloudy
9:30 AM 32.0 °F 22.5 °F 26.6 °F 80% 30.09 in 6.2 mi WSW 12.7 mph - N/A   Mostly Cloudy
10:00 AM 33.8 °F 25.8 °F 26.6 °F 75% 30.09 in 6.2 mi SW 10.4 mph - N/A   Mostly Cloudy
10:30 AM 33.8 °F 27.7 °F 26.6 °F 75% 30.09 in 6.2 mi WSW 6.9 mph - N/A   Mostly Cloudy
11:00 AM 35.6 °F 28.0 °F 28.4 °F 75% 30.09 in 6.2 mi West 10.4 mph - N/A   Mostly Cloudy
11:30 AM 35.6 °F 28.6 °F 28.4 °F 75% 30.12 in 6.2 mi West 9.2 mph - N/A   Mostly Cloudy
12:00 PM 35.6 °F 28.6 °F 28.4 °F 75% 30.12 in 6.2 mi WNW 9.2 mph - N/A   Mostly Cloudy
12:30 PM 35.6 °F 28.0 °F 28.4 °F 75% 30.12 in 6.2 mi NNW 10.4 mph - N/A   Mostly Cloudy
1:00 PM 35 °F - 29 °F 71% 30.19 in 16 mi NNW 11.2 mph - -   Mostly Cloudy
1:00 PM 35.6 °F 28.0 °F 28.4 °F 75% 30.12 in 6.2 mi NW 10.4 mph - N/A   Mostly Cloudy
1:30 PM 35.6 °F 28.6 °F 28.4 °F 75% 30.12 in 6.2 mi NW 9.2 mph - N/A   Mostly Cloudy
2:00 PM 35.6 °F 28.6 °F 26.6 °F 70% 30.12 in 6.2 mi WNW 9.2 mph - N/A   Mostly Cloudy
2:30 PM 35.6 °F 28.0 °F 28.4 °F 75% 30.12 in 6.2 mi WNW 10.4 mph - N/A   Mostly Cloudy
3:00 PM 35.6 °F 29.9 °F 26.6 °F 70% 30.12 in 6.2 mi West 6.9 mph - N/A   Mostly Cloudy
3:30 PM 37.4 °F 30.8 °F 26.6 °F 65% 30.09 in 6.2 mi WNW 9.2 mph - N/A   Mostly Cloudy
4:00 PM 35.6 °F 28.6 °F 26.6 °F 70% 30.09 in 6.2 mi NW 9.2 mph - N/A   Mostly Cloudy
4:30 PM 35.6 °F 29.2 °F 26.6 °F 70% 30.12 in 6.2 mi NW 8.1 mph - N/A   Mostly Cloudy
5:00 PM 35.6 °F 29.2 °F 26.6 °F 70% 30.12 in 6.2 mi NW 8.1 mph - N/A   Mostly Cloudy
5:30 PM 35.6 °F 29.9 °F 26.6 °F 70% 30.12 in 6.2 mi NNW 6.9 mph - N/A   Mostly Cloudy
6:00 PM 33.8 °F 28.6 °F 26.6 °F 75% 30.12 in 6.2 mi NW 5.8 mph - N/A   Mostly Cloudy
6:30 PM 33.8 °F 29.6 °F 26.6 °F 75% 30.12 in 6.2 mi WNW 4.6 mph - N/A   Scattered Clouds
7:00 PM 32 °F - 26 °F 70% 30.21 in 12 mi NW 6.7 mph - -   Scattered Clouds
7:00 PM 32.0 °F 26.4 °F 26.6 °F 80% 30.12 in 6.2 mi WNW 5.8 mph - N/A   Partly Cloudy
7:30 PM 32.0 °F 24.8 °F 26.6 °F 80% 30.12 in 6.2 mi NW 8.1 mph - N/A   Partly Cloudy
8:00 PM 30.2 °F 24.3 °F 24.8 °F 80% 30.15 in - WNW 5.8 mph - N/A   Clear
8:30 PM 30.2 °F 24.3 °F 24.8 °F 80% 30.15 in - West 5.8 mph - N/A   Clear
9:00 PM 30.2 °F 24.3 °F 24.8 °F 80% 30.15 in - WNW 5.8 mph - N/A   Clear
9:30 PM 26.6 °F 21.2 °F 21.2 °F 80% 30.18 in - West 4.6 mph - N/A   Clear
10:00 PM 26.6 °F 22.6 °F 23.0 °F 86% 30.18 in - WSW 3.5 mph - N/A   Clear
10:30 PM 26.6 °F 22.6 °F 23.0 °F 86% 30.18 in 6.2 mi West 3.5 mph - N/A   Mostly Cloudy
11:00 PM 28.4 °F 23.3 °F 24.8 °F 86% 30.18 in 6.2 mi SW 4.6 mph - N/A   Overcast
11:30 PM 26.6 °F 19.1 °F 23.0 °F 86% 30.18 in 6.2 mi SW 6.9 mph - N/A   Mostly Cloudy